STARLINK-35378, 65794

Orbit data source: Space-Track

STARLINK-35378, 65794 is a payload satellite owned by SpaceX/Seattle (US) in SSO that was launched on Fri, 26 Sep 2025 UTC via an FALCON 9 launch vehicle from the Air Force Western Test Range (AFWTR). Payload-class satellites include a variety of spacecraft equipped with specific instruments for various scientific and technological missions. These include communications satellites like Starlink; space stations such as the ISS; scientific satellites like the Hubble; Earth observation satellites from companies like Planet Labs, Umbra, and HawkEye 360; GPS; miniature CubeSats for education and research; and military/defense satellites.

Loading next visibility...
Identifier
65794, 2025-218D
Orbit
SSO
Country
Flag of USUS
Related business
Manufacturer
SpaceX/Seattle
Mission
Operational Commercial Communications
Bus & Motor
STARLINK V2MO, Unknown motor
Mass
575 kg wet, ~530 kg dry
Launch date (UTC)
2025-09-26 (2 months ago)
Launch vehicle
FALCON 9
Launch site
Air Force Western Test Range (AFWTR)
Object type
Payload
Rocket body
Debris
Shape & HBR
Box + 2 Pan, 17.7 m
Radar Cross Section
36.964 m²

Expand to show TLE details & history
Last TLE update: 16 hours ago

TLE from 16 hours ago
0 STARLINK-35378
1 65794U 25218D   25340.56153491  .00012828  00000-0  89147-3 0  9990
2 65794  97.6016 201.1120 0001953  87.6204 272.5246 15.05656419 10959
Epoch: 2025-12-06T13:28Z
TLE epoch observation values (Epoch: 2025-12-06T13:28:36.616Z)
Latitude
-0.00005°
Longitude
-76.62806°
Altitude
552.497 km
Speed
7.586 km/s
True Right ascension
13h 24m 26s
True Declination
0° 00' 00"
Sunlit
Object was in daylight at epoch
Visualization orbit readout
Latitude
Unknown
Longitude
Unknown
Altitude
Unknown
Speed
Unknown
Apparent Right ascension
Unknown
Apparent Declination
Unknown
Sunlit
N/A
Visualization observer readout
Local Sidereal Time
04:00:48
Azimuth
Unknown
Elevation
Unknown
Doppler factor
Unknown
Orbital elements
Apogee altitude
547.837 km
Perigee altitude
545.133 km
Semi-major axis
6,924.622 km
Eccentricity
0.0002
Inclination
97.6016°
RAAN
201.112°
Arg. of periapsis
87.6204°
True anomaly
272.50224°
Mean anomaly
272.5246°
Eccentric anomaly
272.51342°
Mean motion
3.7666 °/min
Orbital period
95.58 mins
BSTAR
0.00089147
Loading maneuver chart data...
Computing Atmospheric mass density...
Loading historical data...
Loading historical data...
Loading historical data...
Loading historical data...
Loading historical data...
Loading historical data...
Loading historical data...

Documentation

Showing up to 5 results
|